[[{"header":{"parameterUnit":"m.s-1","parameterCategory":1,"la1":30.2991,"la2":30.254,"lo1":-89.0895,"lo2":-89.0444,"dy":0.0017,"dx":0.0017,"nx":28,"ny":28,"refTime":"2024-03-22T21:00:00:Z","depth":0,"parameterNumber":2,"parameterNumberName":"U-component_of_WINDS"},"data":[0,0,0,0,0,0,0,0,0,0,0,0,0,0,0,0,0,0,0,0,0,0,0,0,0,0,0,0,0,0,0,0,0,0,0,0,0,0,0,0,0,0,0,0,0,0,0,0,0,0,0,0,0,0,0,0,0,0,-4.8351,-4.8351,0,-4.8374,-4.8374,-4.8374,-4.8261,-4.8258,-4.8255,-4.8252,-4.8276,-4.828,-4.8283,0,0,0,0,0,0,0,0,0,0,0,0,0,-4.8213,-4.8216,-4.8351,-4.8351,-4.8352,-4.8374,-4.8374,-4.8374,-4.8262,-4.8258,-4.8254,-4.825,-4.8275,-4.8279,-4.8284,0,0,0,0,0,0,0,0,0,0,0,0,0,-4.8258,-4.8217,-4.8351,-4.8298,-4.8294,-4.8374,-4.8374,-4.8374,-4.8263,-4.8258,-4.8253,-4.8248,-4.8273,-4.8279,-4.8284,-4.8417,0,0,-4.8301,-4.8304,0,0,0,0,0,0,0,0,-4.8256,-4.8263,-4.8306,-4.8302,-4.8297,-4.831,-4.8334,-4.8389,-4.8264,-4.8275,-4.8252,-4.8246,-4.8291,-4.8295,-4.831,-4.8418,-4.8419,-4.8302,-4.8305,-4.8307,-4.8309,0,0,0,0,0,0,0,-4.8253,-4.8262,-4.836,-4.8306,-4.8301,-4.8274,-4.8275,-4.8344,-4.831,-4.8273,-4.8265,-4.8269,-4.8288,-4.8305,-4.831,-4.8419,-4.8302,-4.8306,-4.831,-4.8312,-4.8638,-4.8643,0,0,0,0,0,0,-4.8257,-4.826,-4.8359,-4.8361,-4.8264,-4.8281,-4.8282,-4.8311,-4.8309,-4.8304,-4.8273,-4.8264,-4.8298,-4.8304,-4.831,-4.8465,-4.8307,-4.8313,-4.8316,-4.8632,-4.8639,-4.8645,0,0,0,0,0,0,-4.8254,-4.8266,-4.8358,-4.8308,-4.8318,-4.8288,-4.8322,-4.8314,-4.833,-4.8309,-4.8303,-4.8297,-4.8294,-4.8302,-4.8391,-4.8464,-4.8315,-4.832,-4.8626,-4.8634,-4.8642,-4.8775,0,0,0,0,0,0,-4.8251,-4.8266,-4.8315,-4.831,-4.8321,-4.8438,-4.8326,-4.8318,-4.834,-4.8328,-4.8329,-4.8325,-4.8291,-4.8384,-4.8397,-4.8469,-4.8324,-4.8619,-4.863,-4.8639,-4.8764,-4.8787,-4.8806,0,0,0,0,0,-4.8246,-4.8352,-4.8318,-4.8331,-4.8381,-4.8442,-4.8449,-4.8407,-4.8346,-4.8396,-4.8383,-4.8325,-4.8455,-4.8394,-4.8407,-4.8482,-4.8615,-4.8627,-4.8639,-4.8754,-4.8782,-4.8805,0,0,0,0,0,0,-4.8365,-4.835,-4.8312,-4.842,-4.8433,-4.8423,-4.8484,-4.8438,-4.8469,-4.8456,-4.8404,-4.8406,-4.8503,-4.8502,-4.8434,-4.8611,-4.8524,-4.854,-4.8608,-4.8634,-4.8654,-4.8651,-4.8329,0,0,0,0,0,-4.8405,-4.8455,-4.8439,-4.8535,-4.8544,-4.8514,-4.8538,-4.8506,-4.8518,-4.8523,-4.8516,-4.8531,-4.8575,-4.8605,-4.8644,-4.8765,-4.8763,-4.8823,-4.8845,-4.8862,-4.8875,-4.8939,-4.8965,-4.8684,-4.8684,-4.8684,0,0,-4.8485,-4.8483,-4.8517,-4.8559,-4.8566,-4.862,-4.8519,-4.858,-4.8619,-4.8532,-4.8615,-4.8612,-4.8624,-4.873,-4.8776,-4.8732,-4.8953,-4.8877,-4.8891,-4.8895,-4.8954,-4.8981,-4.9005,-4.8692,-4.8691,-4.8689,0,0,-4.8658,-4.8663,-4.8743,-4.8752,-4.8764,-4.8744,-4.8764,-4.8762,-4.8756,-4.8838,-4.8774,-4.8822,-4.8899,-4.8911,-4.8927,-4.911,-4.9058,-4.9125,-4.9233,-4.9297,-4.9319,-4.9338,-4.9403,-4.9427,-4.9139,-4.9139,-4.9139,0,-4.8757,-4.8835,-4.879,-4.8856,-4.8876,-4.8802,-4.8883,-4.8895,-4.892,-4.8936,-4.8887,-4.8983,-4.8986,-4.9093,-4.9138,-4.9155,-4.9176,-4.9122,-4.9319,-4.9338,-4.9356,-4.9417,-4.9441,-4.9147,-4.9146,-4.9145,-4.9144,0,-4.8955,-4.9011,-4.9074,-4.91,-4.9128,-4.9202,-4.917,-4.9204,-4.9171,-4.9156,-4.9242,-4.9245,-4.9283,-4.9307,-4.9275,-4.9411,-4.9383,-4.9328,-4.9239,-4.9391,-4.9447,-4.947,-4.9158,-4.9155,-4.9153,-4.9151,0,0,-4.92,-4.9203,-4.9227,-4.9238,-4.9248,-4.929,-4.9362,-4.94,-4.943,-4.9451,-4.951,-4.9579,-4.9528,-4.9547,-4.9516,-4.9572,-4.9716,-4.9509,-4.9509,-4.9546,-4.9866,-4.9906,-4.9934,-4.9683,-4.9688,-4.9691,-4.9865,0,-4.9369,-4.9489,-4.9453,-4.9575,-4.9626,-4.9558,-4.962,-4.9634,-4.9624,-4.9666,-4.9655,-4.9704,-4.9634,-4.9645,-4.9698,-4.9687,-4.9779,-4.9675,-4.9737,-4.974,-4.9733,-4.9963,-5.0005,-5.0168,-4.9887,-4.989,-4.9893,0,-4.958,-4.961,-4.9737,-4.9739,-4.976,-4.9816,-4.9849,-4.9891,-4.9906,-4.9895,-4.9918,-4.9876,-4.9948,-4.9862,-4.996,-4.989,-4.9914,-4.9913,-4.9919,-4.992,-4.9823,-4.9969,-5.0219,-5.0243,-4.9927,-4.9925,-4.9922,0,-4.9745,-4.9817,-4.9902,-4.9914,-4.992,-4.9961,-4.9966,-4.9976,-5.0002,-5.0032,-5.0048,-5.0087,-5.0107,-5.0139,-5.0109,-5.0049,-5.0212,-5.0123,-5.0204,-5.0205,-5.0239,-5.0236,-5.0494,-5.0259,-5.0259,-5.0258,-5.0258,0,-4.9935,-5.0015,-4.9976,-5.0028,-5.0116,-5.0076,-5.0165,-5.0162,-5.0172,-5.0224,-5.0169,-5.0218,-5.0177,-5.0224,-5.0202,-5.0286,-5.0297,-5.029,-5.0282,-5.0293,-5.0294,-5.0305,-5.0292,-5.0265,-5.0264,-5.0262,-5.0261,0,-5.0131,-5.0109,-5.0197,-5.0196,-5.0198,-5.0263,-5.0263,-5.0312,-5.0299,-5.0365,-5.0378,-5.0358,-5.041,-5.0385,-5.044,-5.0425,-5.0534,-5.0512,-5.0528,-5.0522,-5.0604,-5.0596,-5.0876,-5.091,-5.0656,-5.0658,-5.066,0,-5.0253,-5.0313,-5.0319,-5.035,-5.0358,-5.0408,-5.0434,-5.0399,-5.0429,-5.0452,-5.0499,-5.0547,-5.0582,-5.0669,-5.066,-5.0702,-5.068,-5.0775,-5.0685,-5.0695,-5.0679,-5.0675,-5.0681,-5.0792,-5.0795,-5.0798,-5.08,0,-5.047,-5.0457,-5.0497,-5.0535,-5.0569,-5.0596,-5.062,-5.0648,-5.0613,-5.0651,-5.0703,-5.0731,-5.0788,-5.0836,-5.0873,-5.0879,-5.0834,-5.0829,-5.0849,-5.0859,-5.0865,-5.0862,-5.0575,-5.0821,-5.0819,-5.0818,-5.0816,-5.0816,-5.0631,-5.0682,-5.0695,-5.0742,-5.0757,-5.078,-5.0826,-5.0821,-5.0864,-5.0906,-5.0884,-5.0946,-5.0962,-5.1007,-5.1019,-5.1068,-5.103,-5.106,-5.1067,-5.1075,-5.1085,-5.0861,-5.1075,-5.1074,-5.1074,-5.1073,-5.1073,0,-5.0844,-5.085,-5.0895,-5.0929,-5.0967,-5.0924,-5.0948,-5.0983,-5.1038,-5.1057,-5.1094,-5.1156,-5.1203,-5.1199,-5.1243,-5.1283,-5.1263,-5.1295,-5.129,-5.1292,-5.1117,-5.1094,-5.131,-5.131,-5.131,-5.131,-5.131,-5.131,-5.0959,-5.1042,-5.1031,-5.1122,-5.1128,-5.1187,-5.1205,-5.1228,-5.1242,-5.1314,-5.1353,-5.135,-5.1361,-5.1405,-5.1447,-5.1445,-5.1463,-5.1502,-5.1493,-5.1328,-5.1305,-5.1282,-5.126,-5.1507,-5.1508,-5.1663,-5.1665,-5.1666]},{"header":{"parameterUnit":"m.s-1","parameterCategory":1,"la1":30.2991,"la2":30.254,"lo1":-89.0895,"lo2":-89.0444,"dy":0.0017,"dx":0.0017,"nx":28,"ny":28,"refTime":"2024-03-22T21:00:00:Z","depth":0,"parameterNumber":3,"parameterNumberName":"V-component_of_WINDS"},"data":[0,0,0,0,0,0,0,0,0,0,0,0,0,0,0,0,0,0,0,0,0,0,0,0,0,0,0,0,0,0,0,0,0,0,0,0,0,0,0,0,0,0,0,0,0,0,0,0,0,0,0,0,0,0,0,0,0,0,2.8012,2.8012,0,2.8017,2.8017,2.8017,2.8057,2.8058,2.8059,2.806,2.8059,2.8059,2.8058,0,0,0,0,0,0,0,0,0,0,0,0,0,2.8034,2.8033,2.8012,2.8012,2.8012,2.8017,2.8017,2.8017,2.8057,2.8058,2.8059,2.8061,2.806,2.8059,2.8057,0,0,0,0,0,0,0,0,0,0,0,0,0,2.803,2.8033,2.8012,2.8033,2.8035,2.8017,2.8017,2.8017,2.8057,2.8058,2.806,2.8061,2.806,2.8059,2.8057,2.8018,0,0,2.8053,2.8052,0,0,0,0,0,0,0,0,2.803,2.8029,2.803,2.8031,2.8034,2.8038,2.8024,2.8017,2.8056,2.8048,2.806,2.8062,2.8051,2.805,2.8048,2.8018,2.8018,2.8053,2.8052,2.8051,2.8051,0,0,0,0,0,0,0,2.803,2.8029,2.8014,2.803,2.8032,2.8041,2.8042,2.8023,2.8041,2.8049,2.8052,2.8052,2.8052,2.8049,2.8048,2.8018,2.8053,2.8052,2.8051,2.805,2.7958,2.7956,0,0,0,0,0,0,2.8028,2.8029,2.8014,2.8014,2.8036,2.8039,2.804,2.8035,2.8041,2.8044,2.8051,2.8054,2.8051,2.8049,2.8048,2.8003,2.8051,2.805,2.8049,2.796,2.7958,2.7956,0,0,0,0,0,0,2.8028,2.8026,2.8013,2.8022,2.8021,2.8037,2.8031,2.8034,2.8031,2.8043,2.8045,2.8045,2.8052,2.805,2.8026,2.8004,2.8049,2.8048,2.7961,2.7959,2.7957,2.7913,0,0,0,0,0,0,2.8029,2.8026,2.8012,2.8022,2.8021,2.7992,2.8029,2.8033,2.8029,2.8033,2.8038,2.804,2.8053,2.8028,2.8025,2.8003,2.8047,2.7963,2.796,2.7958,2.7916,2.7909,2.7903,0,0,0,0,0,2.803,2.7998,2.8011,2.8009,2.8004,2.7991,2.799,2.8008,2.8027,2.8013,2.8021,2.8039,2.8007,2.8025,2.8022,2.7999,2.7965,2.7961,2.7958,2.7919,2.7911,2.7903,0,0,0,0,0,0,2.7983,2.8,2.8014,2.7986,2.7987,2.7998,2.798,2.7998,2.7992,2.7996,2.8016,2.8016,2.7989,2.7992,2.8012,2.7962,2.7989,2.7985,2.7961,2.7953,2.7947,2.7946,2.8046,0,0,0,0,0,2.797,2.796,2.7974,2.7947,2.7947,2.7964,2.7959,2.7972,2.7974,2.7974,2.7979,2.7979,2.7969,2.7961,2.7952,2.7917,2.7919,2.79,2.7894,2.7888,2.7884,2.7866,2.7858,2.7944,2.7944,2.7944,0,0,2.7942,2.795,2.7941,2.7938,2.7941,2.7929,2.7964,2.7949,2.794,2.7971,2.7949,2.7953,2.7954,2.7925,2.7912,2.7926,2.7861,2.7884,2.7879,2.7878,2.7862,2.7854,2.7847,2.7942,2.7942,2.7943,0,0,2.7884,2.7889,2.7868,2.7871,2.7875,2.7887,2.7882,2.7891,2.7895,2.7875,2.7898,2.7887,2.7869,2.7869,2.7866,2.7811,2.7828,2.7807,2.7773,2.7756,2.7749,2.7743,2.7723,2.7716,2.7803,2.7803,2.7803,0,2.7848,2.7832,2.7854,2.7839,2.7837,2.7867,2.7845,2.7846,2.7847,2.7844,2.786,2.7839,2.7842,2.7813,2.78,2.7797,2.7791,2.7806,2.7748,2.7743,2.7737,2.7719,2.7712,2.7801,2.7801,2.7801,2.7801,0,2.7788,2.7777,2.7759,2.7761,2.7757,2.7738,2.7757,2.775,2.7764,2.7773,2.7752,2.7757,2.775,2.7744,2.7757,2.7718,2.7726,2.7745,2.7773,2.7726,2.7709,2.7703,2.7797,2.7798,2.7799,2.7799,0,0,2.77,2.7717,2.771,2.7712,2.772,2.7711,2.7693,2.7689,2.7683,2.7682,2.7668,2.7653,2.7672,2.7669,2.7682,2.7667,2.7624,2.7688,2.7688,2.7676,2.7581,2.7567,2.7558,2.7636,2.7635,2.7634,2.7581,0,2.7645,2.7618,2.7638,2.7607,2.7597,2.7627,2.7612,2.7615,2.7623,2.7615,2.7624,2.7614,2.7638,2.7637,2.7624,2.7632,2.7605,2.7636,2.7622,2.7621,2.762,2.755,2.7534,2.7484,2.7575,2.7574,2.7573,0,2.7577,2.7576,2.7545,2.7557,2.7553,2.754,2.7538,2.753,2.7534,2.7541,2.754,2.7557,2.7541,2.7569,2.7546,2.7566,2.7562,2.7565,2.7564,2.7562,2.7594,2.7546,2.7469,2.7461,2.7563,2.7563,2.7564,0,2.7516,2.7507,2.7488,2.7488,2.7501,2.7491,2.7496,2.7502,2.7498,2.7496,2.7494,2.749,2.7487,2.7483,2.7498,2.7518,2.7473,2.7503,2.7478,2.7478,2.7467,2.7467,2.7387,2.7464,2.7465,2.7465,2.7465,0,2.7452,2.7432,2.7461,2.7449,2.7427,2.745,2.7427,2.7435,2.744,2.7429,2.7454,2.7443,2.7465,2.7456,2.7469,2.7448,2.7446,2.7451,2.7455,2.7449,2.7448,2.7445,2.7449,2.7463,2.7463,2.7464,2.7464,0,2.738,2.7399,2.7379,2.7395,2.7398,2.7381,2.7393,2.7382,2.7394,2.738,2.7378,2.7395,2.7386,2.7402,2.7394,2.7403,2.7374,2.7383,2.7373,2.7376,2.7351,2.7353,2.7266,2.7256,2.7339,2.7339,2.7338,0,2.7338,2.7323,2.7338,2.7334,2.7338,2.733,2.7327,2.735,2.7346,2.735,2.7339,2.7332,2.7329,2.7313,2.7324,2.7318,2.7327,2.7297,2.7326,2.7321,2.7326,2.7327,2.7326,2.7291,2.729,2.7289,2.7288,0,2.7261,2.7272,2.7268,2.7268,2.7265,2.7265,2.7267,2.7262,2.7286,2.728,2.7272,2.727,2.7263,2.7257,2.7254,2.7258,2.7276,2.7279,2.7273,2.7267,2.7262,2.7264,2.7357,2.7281,2.7281,2.7282,2.7282,2.7283,2.7203,2.7192,2.7201,2.7196,2.7201,2.7203,2.7194,2.7205,2.72,2.7198,2.7211,2.7201,2.7206,2.7205,2.7207,2.7198,2.7212,2.7203,2.7201,2.7198,2.7194,2.7264,2.7198,2.7198,2.7198,2.7199,2.7199,0,2.7128,2.7136,2.7132,2.7135,2.7131,2.7152,2.7155,2.715,2.7142,2.7146,2.7142,2.7134,2.7128,2.714,2.7135,2.7126,2.7135,2.7125,2.7125,2.7126,2.7182,2.7188,2.7118,2.7118,2.7118,2.7118,2.7118,2.7118,2.7089,2.7072,2.7083,2.7069,2.7076,2.7068,2.7068,2.707,2.7074,2.7064,2.706,2.7068,2.7075,2.7072,2.7068,2.7071,2.7068,2.7055,2.7061,2.7114,2.7122,2.7129,2.7135,2.7054,2.7054,2.7005,2.7005,2.7004]}]]